Location: Huppendorf
(49.9333°N, 11.1500°E)
Time: 00:23:57
(UTC+00:00)

STARLINK-61 - Pass Details

Date: 27 February 2020
Orbit: 506 x 517 km, 53.0° (Epoch: 09 April)

Event Time Altitude Azimuth Distance (km) Brightness Sun altitude
Rises 19:07:46 0° 290° (WNW) 2,618 8.6 -22.3°
Reaches altitude 10° 19:09:58 10° 292° (WNW) 1,733 7.3 -22.6°
Enters shadow 19:13:34 71° 326° (NW) 546 3.6 -23.2°
